When you browse on this site, cookies collect data to enhance your experience and personalize the content and advertising you see.
Visit our Privacy Policy to learn more. By continuing to use the site, you agree to this use of cookies and data.
  • In Romania
  • List of Countries
  • For 7 days
  • Water Temperature
  • Satellite Maps
  • Weather Map
  • Weather Widgets
  • user-avatar
    Login

    Hourly Weather Spiridonovka

    Today, 20 January, Sunday

    Time Temperature Precipitation Wind Pressure Humidity
    00:00 -1°C° 0.6 mm 4 mps 753 mmHg 95%
    01:00 -2°C° 0.5 mm 4 mps 753 mmHg 94%
    02:00 -2°C° 0.5 mm 5 mps 753 mmHg 94%
    03:00 -3°C° 0 mm 4 mps 753 mmHg 94%
    04:00 -5°C° 0.1 mm 5 mps 754 mmHg 93%
    05:00 -7°C° 0.1 mm 5 mps 754 mmHg 92%
    06:00 -8°C° 0.1 mm 5 mps 755 mmHg 91%
    07:00 -10°C° 0 mm 4 mps 755 mmHg 90%
    08:00 -12°C° 0 mm 4 mps 756 mmHg 90%
    09:00 -14°C° 0 mm 3 mps 757 mmHg 90%
    10:00 -13°C° 0 mm 3 mps 758 mmHg 90%
    11:00 -12°C° 0 mm 3 mps 758 mmHg 91%
    12:00 -12°C° 0 mm 3 mps 759 mmHg 92%
    13:00 -10°C° 0 mm 3 mps 759 mmHg 92%
    14:00 -10°C° 0 mm 3 mps 760 mmHg 91%
    15:00 -10°C° 0 mm 3 mps 760 mmHg 91%
    16:00 -10°C° 0 mm 3 mps 760 mmHg 91%
    17:00 -10°C° 0 mm 3 mps 761 mmHg 91%
    18:00 -10°C° 0 mm 2 mps 761 mmHg 92%
    19:00 -12°C° 0 mm 2 mps 761 mmHg 92%
    20:00 -14°C° 0 mm 3 mps 761 mmHg 93%
    21:00 -15°C° 0 mm 3 mps 762 mmHg 93%
    22:00 -16°C° 0 mm 3 mps 762 mmHg 93%
    23:00 -16°C° 0 mm 3 mps 762 mmHg 93%

    Tomorrow, 21 January, Monday

    Time Temperature Precipitation Wind Pressure Humidity
    00:00 -17°C° 0 mm 3 mps 762 mmHg 94%
    01:00 -17°C° 0 mm 3 mps 762 mmHg 94%
    02:00 -18°C° 0 mm 4 mps 762 mmHg 94%
    03:00 -18°C° 0 mm 4 mps 762 mmHg 94%
    04:00 -18°C° 0 mm 4 mps 762 mmHg 95%
    05:00 -19°C° 0 mm 5 mps 762 mmHg 95%
    06:00 -18°C° 0 mm 5 mps 762 mmHg 95%
    07:00 -18°C° 0 mm 5 mps 762 mmHg 95%
    08:00 -18°C° 0 mm 5 mps 762 mmHg 95%
    09:00 -17°C° 0 mm 6 mps 762 mmHg 95%
    10:00 -17°C° 0 mm 6 mps 761 mmHg 95%
    11:00 -16°C° 0 mm 6 mps 761 mmHg 94%
    12:00 -16°C° 0 mm 6 mps 761 mmHg 93%
    13:00 -16°C° 0 mm 6 mps 760 mmHg 92%
    14:00 -15°C° 0 mm 6 mps 760 mmHg 92%
    15:00 -14°C° 0 mm 5 mps 760 mmHg 92%
    16:00 -15°C° 0.2 mm 6 mps 759 mmHg 92%
    17:00 -15°C° 0.2 mm 6 mps 758 mmHg 92%
    18:00 -15°C° 0.2 mm 6 mps 758 mmHg 92%
    19:00 -14°C° 0.6 mm 6 mps 757 mmHg 93%
    20:00 -14°C° 0.6 mm 7 mps 756 mmHg 93%
    21:00 -13°C° 0.6 mm 7 mps 755 mmHg 94%
    22:00 -12°C° 0.9 mm 7 mps 754 mmHg 94%
    23:00 -11°C° 0.9 mm 6 mps 753 mmHg 94%

    Day after tomorrow, 22 January, Tuesday

    Time Temperature Precipitation Wind Pressure Humidity
    00:00 -10°C° 0.9 mm 6 mps 752 mmHg 94%
    01:00 -9°C° 0.7 mm 6 mps 751 mmHg 94%
    02:00 -7°C° 0.7 mm 5 mps 751 mmHg 94%
    03:00 -5°C° 0.7 mm 5 mps 750 mmHg 95%
    04:00 -7°C° 0.1 mm 5 mps 751 mmHg 94%
    05:00 -9°C° 0.1 mm 4 mps 751 mmHg 92%
    06:00 -11°C° 0.1 mm 4 mps 751 mmHg 91%
    07:00 -12°C° 0 mm 4 mps 752 mmHg 91%
    08:00 -12°C° 0 mm 4 mps 753 mmHg 91%
    09:00 -12°C° 0 mm 4 mps 754 mmHg 91%
    10:00 -12°C° 0 mm 4 mps 755 mmHg 89%
    11:00 -12°C° 0 mm 4 mps 756 mmHg 87%
    12:00 -12°C° 0 mm 4 mps 756 mmHg 86%
    13:00 -15°C° 0 mm 4 mps 757 mmHg 87%
    14:00 -15°C° 0 mm 3 mps 757 mmHg 89%
    15:00 -16°C° 0 mm 3 mps 758 mmHg 90%
    16:00 -17°C° 0 mm 3 mps 758 mmHg 91%
    17:00 -18°C° 0 mm 2 mps 759 mmHg 92%
    18:00 -19°C° 0 mm 2 mps 759 mmHg 93%
    19:00 -19°C° 0 mm 2 mps 760 mmHg 94%
    20:00 -20°C° 0 mm 2 mps 760 mmHg 95%
    21:00 -20°C° 0 mm 2 mps 760 mmHg 96%
    22:00 -21°C° 0 mm 2 mps 761 mmHg 96%
    23:00 -21°C° 0 mm 2 mps 761 mmHg 97%

    23 January, Wednesday

    Time Temperature Precipitation Wind Pressure Humidity
    00:00 -23°C° 0 mm 2 mps 762 mmHg 97%
    01:00 -23°C° 0 mm 2 mps 762 mmHg 97%
    02:00 -24°C° 0 mm 2 mps 763 mmHg 98%
    03:00 -24°C° 0 mm 2 mps 763 mmHg 98%
    04:00 -25°C° 0 mm 2 mps 764 mmHg 98%
    05:00 -25°C° 0 mm 2 mps 764 mmHg 98%
    06:00 -26°C° 0 mm 2 mps 765 mmHg 99%
    07:00 -26°C° 0 mm 2 mps 765 mmHg 98%
    08:00 -25°C° 0 mm 2 mps 766 mmHg 98%
    09:00 -25°C° 0 mm 2 mps 766 mmHg 98%
    10:00 -24°C° 0 mm 2 mps 767 mmHg 97%
    11:00 -23°C° 0 mm 2 mps 767 mmHg 96%
    12:00 -21°C° 0 mm 2 mps 767 mmHg 95%
    13:00 -21°C° 0 mm 2 mps 767 mmHg 95%
    14:00 -21°C° 0 mm 2 mps 768 mmHg 95%
    15:00 -21°C° 0 mm 2 mps 768 mmHg 95%
    16:00 -21°C° 0 mm 2 mps 768 mmHg 96%
    17:00 -23°C° 0 mm 2 mps 769 mmHg 96%
    18:00 -24°C° 0 mm 2 mps 769 mmHg 97%
    19:00 -24°C° 0 mm 2 mps 769 mmHg 97%
    20:00 -24°C° 0 mm 2 mps 769 mmHg 97%
    21:00 -25°C° 0 mm 3 mps 769 mmHg 97%
    22:00 -25°C° 0 mm 3 mps 770 mmHg 97%
    23:00 -25°C° 0 mm 3 mps 770 mmHg 96%

    24 January, Thursday

    Time Temperature Precipitation Wind Pressure Humidity
    00:00 -25°C° 0 mm 3 mps 770 mmHg 96%
    01:00 -25°C° 0 mm 3 mps 770 mmHg 96%
    02:00 -25°C° 0 mm 3 mps 770 mmHg 96%
    03:00 -24°C° 0 mm 3 mps 770 mmHg 96%
    04:00 -25°C° 0 mm 4 mps 770 mmHg 96%
    05:00 -25°C° 0 mm 4 mps 770 mmHg 96%
    06:00 -25°C° 0 mm 4 mps 770 mmHg 96%
    07:00 -24°C° 0 mm 4 mps 770 mmHg 95%
    08:00 -25°C° 0 mm 5 mps 770 mmHg 94%
    09:00 -25°C° 0 mm 5 mps 770 mmHg 94%
    10:00 -24°C° 0 mm 5 mps 770 mmHg 92%
    11:00 -23°C° 0 mm 6 mps 770 mmHg 91%
    12:00 -22°C° 0 mm 6 mps 770 mmHg 90%
    13:00 -22°C° 0 mm 6 mps 770 mmHg 89%
    14:00 -22°C° 0 mm 6 mps 769 mmHg 88%
    15:00 -21°C° 0 mm 5 mps 769 mmHg 87%
    16:00 -22°C° 0 mm 5 mps 769 mmHg 87%
    17:00 -22°C° 0 mm 5 mps 769 mmHg 87%
    18:00 -24°C° 0 mm 5 mps 769 mmHg 87%
    19:00 -24°C° 0 mm 5 mps 769 mmHg 86%
    20:00 -24°C° 0 mm 5 mps 769 mmHg 86%
    21:00 -25°C° 0 mm 5 mps 769 mmHg 85%
    22:00 -25°C° 0 mm 5 mps 769 mmHg 85%
    23:00 -24°C° 0 mm 4 mps 769 mmHg 85%

    25 January, Friday

    Time Temperature Precipitation Wind Pressure Humidity
    00:00 -24°C° 0 mm 4 mps 769 mmHg 85%
    01:00 -25°C° 0 mm 4 mps 769 mmHg 86%
    02:00 -25°C° 0 mm 4 mps 769 mmHg 87%
    03:00 -25°C° 0 mm 3 mps 769 mmHg 89%
    04:00 -25°C° 0 mm 3 mps 768 mmHg 89%
    05:00 -25°C° 0 mm 3 mps 768 mmHg 90%
    06:00 -25°C° 0 mm 3 mps 768 mmHg 91%
    07:00 -24°C° 0 mm 3 mps 768 mmHg 91%
    08:00 -23°C° 0 mm 3 mps 768 mmHg 90%
    09:00 -21°C° 0 mm 3 mps 768 mmHg 90%
    10:00 -18°C° 0 mm 2 mps 768 mmHg 89%
    11:00 -17°C° 0 mm 2 mps 767 mmHg 88%
    12:00 -16°C° 0 mm 2 mps 767 mmHg 88%
    13:00 -16°C° 0.1 mm 2 mps 767 mmHg 89%
    14:00 -16°C° 0.1 mm 2 mps 767 mmHg 90%
    15:00 -15°C° 0.1 mm 2 mps 767 mmHg 91%
    16:00 -15°C° 0.1 mm 2 mps 766 mmHg 92%
    17:00 -15°C° 0.1 mm 2 mps 766 mmHg 92%
    18:00 -16°C° 0.1 mm 3 mps 766 mmHg 93%
    19:00 -16°C° 0.2 mm 3 mps 766 mmHg 93%
    20:00 -16°C° 0.2 mm 3 mps 766 mmHg 94%
    21:00 -16°C° 0.2 mm 3 mps 766 mmHg 94%
    22:00 -16°C° 0.7 mm 3 mps 765 mmHg 95%
    23:00 -16°C° 0.7 mm 3 mps 765 mmHg 95%
    Show more